Lakeland Region, FL

10:33 AM EDT on April 29, 2017 (GMT -0400)
Lakeland Linder Regional

Weather History for KLAL - August, 2013

Change the Weather History Date:

Friday, August 30, 2013

  Actual Average Record
Temperature  
Mean Temperature 81 °F -  
Max Temperature 89 °F 88 °F 95 °F (1999)
Min Temperature 73 °F 72 °F 70 °F (1992)
Cooling Degree Days 16    
Growing Degree Days 31 (Base 50)    
Moisture  
Dew Point 72 °F    
Average Humidity 83    
Maximum Humidity 94    
Minimum Humidity 52    
Precipitation  
Precipitation 0.00 in - - ()
Sea Level Pressure  
Sea Level Pressure 29.98 in    
Wind  
Wind Speed 1 mph (SSW)    
Max Wind Speed 21 mph    
Max Gust Speed 29 mph    
Visibility 11 miles    
Events Thunderstorm    
Averages and records for this station are not official NWS values.
T = Trace of Precipitation, MM = Missing Value Source: NWS Daily Summary

Daily Weather History Graph

Daily Weather History Graph

Search for Another Location

Airport or City:

Trip Planner

Search our weather history database for the weather conditions in past years. The results will help you decide how hot, cold, wet, or windy it might be!

Date:

Astronomy

Aug. 30, 2013 Rise Set
Actual Time 7:05 AM EDT 7:50 PM EDT
Civil Twilight 6:41 AM EDT 8:14 PM EDT
Nautical Twilight 6:13 AM EDT 8:42 PM EDT
Astronomical Twilight 5:45 AM EDT 9:11 PM EDT
Moon 1:58 AM EDT (8/30) 3:50 PM EDT (8/30)
Length of Visible Light 13h 32m
Length of Day
12h 45m
Waning Crescent, 29% of the Moon is Illuminated
Aug 30
Waning Crescent
Sep 5
New
Sep 12
First Quarter
Sep 19
Full
Sep 26
Last Quarter

Hourly Weather History & Observations

Time (EDT) Temp. Heat Index Dew Point Humidity Pressure Visibility Wind Dir Wind Speed Gust Speed Precip Events Conditions
12:15 AM 77.0 °F - 69.8 °F 78% 30.01 in 10.0 mi Calm Calm - N/A   Clear
12:35 AM 77.0 °F - 69.8 °F 78% 30.01 in 10.0 mi Calm Calm - N/A   Mostly Cloudy
12:55 AM 77.0 °F - 69.8 °F 78% 30.01 in 10.0 mi Calm Calm - N/A   Scattered Clouds
1:15 AM 77.0 °F - 69.8 °F 78% 30.01 in 10.0 mi Calm Calm - N/A   Clear
1:35 AM 75.2 °F - 69.8 °F 83% 30.00 in 10.0 mi Calm Calm - N/A   Clear
1:55 AM 75.2 °F - 71.6 °F 89% 30.00 in 10.0 mi Calm Calm - N/A   Clear
2:15 AM 73.4 °F - 71.6 °F 94% 30.00 in 10.0 mi Calm Calm - N/A   Scattered Clouds
2:35 AM 73.4 °F - 71.6 °F 94% 29.99 in 10.0 mi Calm Calm - N/A Thunderstorm Thunderstorm
2:55 AM 73.4 °F - 71.6 °F 94% 29.98 in 10.0 mi Calm Calm - N/A Thunderstorm Clear
3:15 AM 73.4 °F - 71.6 °F 94% 29.98 in 10.0 mi Calm Calm - N/A   Scattered Clouds
3:35 AM 73.4 °F - 71.6 °F 94% 29.98 in 10.0 mi Calm Calm - N/A   Clear
3:55 AM 73.4 °F - 71.6 °F 94% 29.97 in 10.0 mi North 3.5 mph - N/A   Clear
4:15 AM 73.4 °F - 71.6 °F 94% 29.97 in 10.0 mi Calm Calm - N/A   Clear
4:35 AM 73.4 °F - 71.6 °F 94% 29.97 in 10.0 mi North 3.5 mph - N/A   Clear
4:55 AM 73.4 °F - 71.6 °F 94% 29.97 in 10.0 mi Calm Calm - N/A   Clear
5:15 AM 73.4 °F - 71.6 °F 94% 29.96 in 10.0 mi Calm Calm - N/A   Clear
5:35 AM 73.4 °F - 71.6 °F 94% 29.96 in 10.0 mi Calm Calm - N/A   Clear
5:50 AM 73.4 °F - 71.6 °F 94% 29.96 in - Calm Calm - N/A   Clear
5:55 AM 73.4 °F - 71.6 °F 94% 29.96 in 10.0 mi Calm Calm - N/A   Clear
6:15 AM 73.4 °F - 71.6 °F 94% 29.96 in 10.0 mi Calm Calm - N/A   Clear
6:35 AM 73.4 °F - 71.6 °F 94% 29.97 in 10.0 mi Calm Calm - N/A   Clear
6:55 AM 73.4 °F - 71.6 °F 94% 29.98 in 15.0 mi Calm Calm - N/A   Clear
8:50 AM 78.8 °F - 75.2 °F 89% 30.00 in 10.0 mi Calm Calm - N/A   Clear
9:50 AM 82.4 °F 88.2 °F 73.4 °F 74% 30.01 in 10.0 mi Calm Calm - N/A   Partly Cloudy
10:50 AM 84.2 °F 89.6 °F 71.6 °F 66% 30.01 in 12.0 mi Variable 3.5 mph - N/A   Scattered Clouds
11:50 AM 87.8 °F 92.6 °F 69.8 °F 55% 30.01 in 12.0 mi Calm Calm - N/A   Mostly Cloudy
12:50 PM 89.6 °F 96.2 °F 71.6 °F 55% 29.99 in 12.0 mi Calm Calm - N/A   Mostly Cloudy
1:52 PM 89.6 °F 94.7 °F 69.8 °F 52% 29.96 in 12.0 mi NW 5.8 mph - N/A   Mostly Cloudy
2:56 PM 78.8 °F - 69.8 °F 74% 29.96 in 12.0 mi South 10.4 mph - N/A   Mostly Cloudy
3:55 PM 80.6 °F 84.6 °F 71.6 °F 74% 29.94 in 10.0 mi WSW 20.7 mph 28.8 mph N/A   Mostly Cloudy
4:50 PM 84.2 °F 89.6 °F 71.6 °F 66% 29.94 in 10.0 mi SW 8.1 mph - N/A   Scattered Clouds
5:53 PM 82.4 °F 88.2 °F 73.4 °F 74% 29.93 in 12.0 mi SSW 5.8 mph - N/A   Mostly Cloudy
6:54 PM 82.4 °F 88.2 °F 73.4 °F 74% 29.93 in 12.0 mi SSW 3.5 mph - N/A   Mostly Cloudy
7:51 PM 82.4 °F 87.2 °F 71.6 °F 70% 29.94 in 12.0 mi Calm Calm - N/A   Mostly Cloudy
8:52 PM 78.8 °F - 73.4 °F 83% 29.95 in 12.0 mi SE 5.8 mph - N/A   Scattered Clouds
9:51 PM 78.8 °F - 71.6 °F 78% 29.96 in 12.0 mi Calm Calm - N/A   Mostly Cloudy
10:55 PM 77.0 °F - 71.6 °F 83% 29.97 in 10.0 mi SE 3.5 mph - N/A   Mostly Cloudy
11:15 PM 77.0 °F - 73.4 °F 89% 29.97 in 10.0 mi South 3.5 mph - N/A   Scattered Clouds
11:35 PM 77.0 °F - 73.4 °F 89% 29.97 in 10.0 mi Calm Calm - N/A   Clear
11:55 PM 75.2 °F - 73.4 °F 94% 29.97 in 10.0 mi Calm Calm - N/A   Clear